Regional Weather Roundup
Issued by NWS Newport/Morehead, NC

Current Version | Previous Version | Graphics & Text | Print | Product List | Glossary Off
Versions: 1 2 3 4 5 6 7 8 9 10 11 12 13 14 15 16 17 18 19 20 21 22 23 24 25 26 27 28 29 30 31 32 33 34 35 36 37 38 39 40 41 42 43 44 45 46 47 48 49 50

000
ASUS42 KMHX 010022
RWRMHX
WEATHER ROUNDUP FOR EASTERN NORTH CAROLINA
NATIONAL WEATHER SERVICE NEWPORT/MOREHEAD CITY NC
800 PM EDT SUN AUG 31 2014

NOTE: "FAIR" INDICATES FEW OR NO CLOUDS BELOW 12,000 FEET
WITH NO SIGNIFICANT WEATHER AND/OR OBSTRUCTIONS TO VISIBILITY

NCZ015>017-031-032-045>047-102-103-010100-
NORTH COAST

CITY           SKY/WX    TMP DP  RH WIND       PRES   REMARKS
EDENTON        CLEAR     82  74  78 S7        30.08R
ELIZABETH CITY CLEAR     81  73  76 S7        30.08R
KITTY HAWK     CLEAR     81  75  82 S3        30.09R
MANTEO         PTCLDY    81  75  83 S14       30.10R

$$

NCZ045>047-081-094-103-104-010100-
CENTRAL COAST

CITY           SKY/WX    TMP DP  RH WIND       PRES   REMARKS
FRISCO         PTCLDY    80  76  87 S13       30.10F
SWANQUARTER      N/A     82 N/A N/A S12G17    30.06S

$$

NCZ095-097-098-100-101-010100-
SOUTHERN COAST

CITY           SKY/WX    TMP DP  RH WIND       PRES   REMARKS
BEAUFORT       PTCLDY    82  75  79 S12       30.10S
CEDAR ISLAND     N/A     81 N/A N/A S7        30.15S
JACKSONVILLE   PTCLDY    80  74  81 S5        30.09S
NEWPORT        NOT AVBL
PINEY ISLAND   PTCLDY    82  76  81 S7        30.10R
WILMINGTON     PTCLDY    81  74  79 S7        30.09S


$$

NCZ011>013-027>030-043-044-078>080-089-090>093-098-010100-
COASTAL PLAIN

CITY           SKY/WX    TMP DP  RH WIND       PRES   REMARKS
AHOSKIE        CLEAR     76  74  93 CALM      30.07S
CLINTON        CLEAR     82  75  79 CALM      30.09R
ELIZABETHTOWN  CLEAR     82  72  72 S5        30.09R
GOLDSBORO      CLEAR     83  78  85 SE7       30.06R
GREENVILLE     PTCLDY    82  72  69 S12       30.09R
HAVELOCK       PTCLDY    80  74  81 S6        30.11R
KENANSVILLE    PTCLDY    81  72  75 SE5       30.10R
KINSTON        CLEAR     82  73  74 S7        30.09R
NEW BERN       PTCLDY    82  73  74 S6        30.11R
RICHLANDS      PTCLDY    81  72  74 S7        30.10S
ROANOKE RAPIDS NOT AVBL
ROCKY MOUNT    CLEAR     80  74  81 CALM      30.07R
WASHINGTON     CLEAR     81  71  70 S5        30.10R
WHITEVILLE     CLEAR     81  73  76 S3        30.09R

$$

AMZ130-135-150-152-154-156-158-170-250-252-270-ANZ085-086-088-633-658-670-010100-
MARINE OBSERVATIONS

STATION/POSITION TIME  TEMP    WIND        PRES    WAVE   SWELL
                       AIR SEA DIR/SP/G            HT/PER HT/PER
                 (UTC) (F)     (DEG/KT/KT) (MB)    (FT/S) (FT/S)
CHESAPEAKE LIGHT 0000   79     170/ 20/ 22 1018.4
BUOY 44014       0000   79 78  180/ 14/ 16 1018.5    3/ 9   2/ 9
DUCK             0000   81 77  170/ 13/ 19 1017.9
2E DUCK          0000                        N/A     2/ 9
OREGON INLET     0000   81 82  180/ 13/ 17 1019.1
BUOY 44095       0000      79                N/A     3/ 9
20E OREGON INLET NOT AVBL
HATTERAS CG      0000   82 84  190/  6/ 12 1019.8
DIAMOND BUOY     0000   81     180/ 14/ 16 1019.5    3/ 9   3/ 9
CAPE LOOKOUT     0000   82     190/ 12/ 14 1019.4
BEAUFORT LAB     0000   82 83  200/ 12/ 14 1018.9
30 SE NEW RIVER  0000   83 83  200/ 12/ 12 1019.8    3/ 9   2/ 9
5 SE WRIGHTSVILL 0000   79 82  190/ 12/ 14   N/A
BUOY 41002       NOT AVBL
BUOY 41004       0000   82 83  160/  8/ 10 1018.4    3/ 9   2/ 9

$$


USA.gov is the U.S. government's official web portal to all federal, state and local government web resources and services.